[[{"header":{"parameterUnit":"m.s-1","parameterCategory":1,"la1":30.2991,"la2":30.254,"lo1":-89.0895,"lo2":-89.0444,"dy":0.0017,"dx":0.0017,"nx":28,"ny":28,"refTime":"2026-01-11T09:00:00:Z","depth":0,"parameterNumber":2,"parameterNumberName":"U-component_of_WINDS"},"data":[0,0,0,0,0,0,0,0,0,0,0,0,0,0,0,0,0,0,0,0,0,0,0,0,0,0,0,0,0,0,0,0,0,0,0,0,0,0,0,0,0,0,0,0,0,0,0,0,0,0,0,0,0,0,0,0,0,0,1.1393,1.1393,0,1.1407,1.1407,1.1407,1.1404,1.1404,1.1404,1.1403,1.1417,1.1418,1.1418,0,0,0,0,0,0,0,0,0,0,0,0,0,1.1365,1.1365,1.1393,1.1393,1.1394,1.1407,1.1407,1.1407,1.1404,1.1404,1.1403,1.1403,1.1417,1.1418,1.1419,0,0,0,0,0,0,0,0,0,0,0,0,0,1.1378,1.1366,1.1393,1.1394,1.1394,1.1407,1.1407,1.1408,1.1404,1.1404,1.1403,1.1403,1.1417,1.1418,1.1419,1.1432,0,0,1.1421,1.1422,0,0,0,0,0,0,0,0,1.1377,1.1379,1.1393,1.1394,1.1394,1.1403,1.1402,1.1416,1.1404,1.14,1.1403,1.1403,1.1413,1.1414,1.1418,1.1433,1.1434,1.1422,1.1422,1.1422,1.1423,0,0,0,0,0,0,0,1.1376,1.1378,1.1399,1.1394,1.1394,1.1393,1.1395,1.1405,1.1409,1.1401,1.14,1.1402,1.1413,1.1417,1.1418,1.1434,1.1422,1.1422,1.1423,1.1423,1.1463,1.1464,0,0,0,0,0,0,1.1375,1.1378,1.1398,1.1399,1.1384,1.1394,1.1396,1.1401,1.1409,1.1409,1.1402,1.1402,1.1415,1.1417,1.1418,1.1436,1.1422,1.1423,1.1424,1.1463,1.1463,1.1464,0,0,0,0,0,0,1.1374,1.1377,1.1398,1.1388,1.1391,1.1395,1.1401,1.1401,1.1405,1.141,1.1411,1.1405,1.1415,1.1417,1.1429,1.1436,1.1424,1.1425,1.1462,1.1463,1.1464,1.1471,0,0,0,0,0,0,1.1374,1.1377,1.1382,1.1388,1.1391,1.1408,1.1401,1.1402,1.1407,1.1406,1.1413,1.1414,1.1415,1.1428,1.143,1.1437,1.1425,1.1461,1.1462,1.1463,1.147,1.1471,1.1473,0,0,0,0,0,1.1373,1.1383,1.1382,1.1384,1.1398,1.1408,1.141,1.1411,1.1407,1.1412,1.1416,1.1414,1.1435,1.1429,1.1432,1.1439,1.1461,1.1462,1.1463,1.1469,1.1471,1.1473,0,0,0,0,0,0,1.1376,1.1383,1.1383,1.1395,1.1401,1.1408,1.1414,1.1413,1.1421,1.142,1.1421,1.1423,1.1435,1.1439,1.1432,1.1454,1.1448,1.1449,1.1451,1.1453,1.1455,1.1454,1.1426,0,0,0,0,0,1.1378,1.1386,1.1392,1.1403,1.1406,1.141,1.1414,1.1415,1.1421,1.1424,1.1428,1.1435,1.1443,1.1448,1.1456,1.1471,1.1473,1.1477,1.1479,1.148,1.1481,1.1491,1.1493,1.1468,1.1468,1.1467,0,0,1.1382,1.1388,1.1392,1.1403,1.1408,1.1417,1.1412,1.1421,1.1427,1.1425,1.1437,1.1441,1.1448,1.1462,1.1468,1.1465,1.1489,1.1482,1.1483,1.1483,1.1492,1.1494,1.1497,1.1468,1.1468,1.1468,0,0,1.1395,1.1399,1.1409,1.1414,1.1422,1.1425,1.1427,1.1435,1.1437,1.1449,1.1448,1.1457,1.1471,1.1477,1.1481,1.1499,1.1497,1.1501,1.1509,1.1518,1.152,1.1522,1.1529,1.1531,1.1503,1.1503,1.1503,0,1.1399,1.1412,1.1414,1.1424,1.1429,1.1428,1.1439,1.1444,1.1454,1.1458,1.1454,1.1474,1.1478,1.1494,1.1498,1.1502,1.1506,1.15,1.152,1.1522,1.1523,1.153,1.1532,1.1503,1.1503,1.1503,1.1503,0,1.1417,1.1426,1.1433,1.1444,1.145,1.146,1.1464,1.147,1.1471,1.1475,1.1488,1.1494,1.1504,1.1508,1.1508,1.1524,1.1522,1.152,1.1513,1.1526,1.1532,1.1535,1.1504,1.1504,1.1504,1.1503,0,0,1.143,1.1443,1.1446,1.1451,1.1461,1.1468,1.1479,1.1489,1.1494,1.1502,1.1511,1.1525,1.1523,1.1528,1.153,1.1537,1.1552,1.1534,1.1534,1.1537,1.1571,1.1573,1.1575,1.1551,1.1552,1.1552,1.157,0,1.1444,1.1462,1.1465,1.1482,1.1491,1.1492,1.1501,1.1508,1.1513,1.1521,1.1526,1.1536,1.1532,1.1535,1.1543,1.1548,1.1559,1.1547,1.156,1.1561,1.1558,1.1579,1.158,1.1597,1.1573,1.1573,1.1573,0,1.1461,1.147,1.1488,1.1498,1.1501,1.151,1.152,1.1529,1.1538,1.154,1.1547,1.1549,1.1561,1.1554,1.1571,1.1564,1.157,1.1573,1.1574,1.1575,1.1567,1.158,1.1602,1.1605,1.1577,1.1577,1.1576,0,1.1469,1.1486,1.1499,1.1503,1.1515,1.1521,1.1526,1.1535,1.1541,1.1551,1.1555,1.1566,1.1572,1.158,1.1585,1.158,1.1602,1.1596,1.1605,1.1605,1.1609,1.1608,1.1632,1.1613,1.1613,1.1613,1.1613,0,1.1484,1.1495,1.1503,1.1511,1.1523,1.1528,1.154,1.1545,1.1553,1.1563,1.1564,1.1573,1.1579,1.1589,1.1592,1.1607,1.1609,1.1612,1.1613,1.1612,1.1611,1.1615,1.1614,1.1614,1.1613,1.1613,1.1613,0,1.1495,1.15,1.1515,1.1525,1.1528,1.1537,1.1547,1.1555,1.156,1.1572,1.1575,1.1583,1.1595,1.1601,1.1615,1.1618,1.1634,1.1634,1.1631,1.1631,1.164,1.1639,1.1667,1.1671,1.1649,1.1649,1.165,0,1.1503,1.1512,1.1524,1.153,1.1536,1.1547,1.1554,1.1559,1.1566,1.1578,1.1585,1.1598,1.1608,1.1627,1.1635,1.1646,1.1647,1.1656,1.1648,1.1648,1.1647,1.1647,1.1648,1.1657,1.1657,1.1657,1.1657,0,1.1518,1.1521,1.1531,1.1543,1.1551,1.1561,1.157,1.1575,1.1582,1.1591,1.1603,1.1611,1.1627,1.164,1.1653,1.1659,1.1659,1.166,1.1663,1.1661,1.1659,1.1661,1.1635,1.1659,1.1659,1.1659,1.1658,1.1658,1.1528,1.1536,1.1547,1.1558,1.1566,1.1575,1.1584,1.159,1.1601,1.1615,1.1617,1.1631,1.1642,1.1659,1.1666,1.1677,1.1675,1.1679,1.168,1.1681,1.1681,1.1658,1.1679,1.1679,1.1679,1.1679,1.1679,0,1.1543,1.1551,1.1561,1.1575,1.1584,1.1585,1.1596,1.1604,1.1616,1.1626,1.1636,1.1652,1.1665,1.1674,1.1687,1.1694,1.1695,1.1697,1.1697,1.1698,1.1682,1.1679,1.1697,1.1697,1.1697,1.1697,1.1697,1.1697,1.1552,1.1567,1.1571,1.159,1.1597,1.1611,1.1617,1.1626,1.1634,1.1651,1.1662,1.1668,1.1678,1.1692,1.1704,1.1707,1.1712,1.1714,1.1717,1.1701,1.1699,1.1698,1.1694,1.1715,1.1715,1.1732,1.1732,1.1732]},{"header":{"parameterUnit":"m.s-1","parameterCategory":1,"la1":30.2991,"la2":30.254,"lo1":-89.0895,"lo2":-89.0444,"dy":0.0017,"dx":0.0017,"nx":28,"ny":28,"refTime":"2026-01-11T09:00:00:Z","depth":0,"parameterNumber":3,"parameterNumberName":"V-component_of_WINDS"},"data":[0,0,0,0,0,0,0,0,0,0,0,0,0,0,0,0,0,0,0,0,0,0,0,0,0,0,0,0,0,0,0,0,0,0,0,0,0,0,0,0,0,0,0,0,0,0,0,0,0,0,0,0,0,0,0,0,0,0,-8.7677,-8.7678,0,-8.7842,-8.7844,-8.7846,-8.7771,-8.7767,-8.7762,-8.7759,-8.7921,-8.7929,-8.7937,0,0,0,0,0,0,0,0,0,0,0,0,0,-8.729,-8.7298,-8.7676,-8.7679,-8.7681,-8.7842,-8.7844,-8.7846,-8.7771,-8.7766,-8.7761,-8.7757,-8.7918,-8.7928,-8.7938,0,0,0,0,0,0,0,0,0,0,0,0,0,-8.7457,-8.73,-8.7676,-8.7663,-8.7663,-8.7841,-8.7844,-8.7847,-8.7772,-8.7766,-8.776,-8.7754,-8.7915,-8.7927,-8.7939,-8.8137,0,0,-8.7976,-8.7982,0,0,0,0,0,0,0,0,-8.7447,-8.7471,-8.7663,-8.7664,-8.7665,-8.778,-8.7767,-8.7944,-8.7774,-8.7731,-8.7759,-8.7751,-8.7878,-8.7893,-8.7937,-8.8145,-8.8152,-8.7977,-8.7985,-8.799,-8.7993,0,0,0,0,0,0,0,-8.7436,-8.7464,-8.7742,-8.7666,-8.7667,-8.7647,-8.7664,-8.78,-8.7837,-8.7734,-8.7729,-8.775,-8.7878,-8.7926,-8.7941,-8.8154,-8.7977,-8.7988,-8.7995,-8.8,-8.8533,-8.8539,0,0,0,0,0,0,-8.7426,-8.7454,-8.7736,-8.7747,-8.7539,-8.7659,-8.7678,-8.7749,-8.7835,-8.7843,-8.7755,-8.7746,-8.7908,-8.7927,-8.7946,-8.8185,-8.799,-8.8001,-8.8008,-8.8526,-8.8534,-8.8541,0,0,0,0,0,0,-8.7418,-8.7452,-8.773,-8.7599,-8.7633,-8.7672,-8.7752,-8.7755,-8.7803,-8.7851,-8.7857,-8.7798,-8.7904,-8.7929,-8.8091,-8.8189,-8.8007,-8.8018,-8.8518,-8.8528,-8.8538,-8.8663,0,0,0,0,0,0,-8.7407,-8.7449,-8.7526,-8.7602,-8.7641,-8.7874,-8.7759,-8.7763,-8.7826,-8.7815,-8.7893,-8.79,-8.7901,-8.8073,-8.8103,-8.8203,-8.8027,-8.8509,-8.8522,-8.8535,-8.8651,-8.8677,-8.8699,0,0,0,0,0,-8.7393,-8.7553,-8.7531,-8.7565,-8.7738,-8.788,-8.7902,-8.7902,-8.7834,-8.7911,-8.7942,-8.7897,-8.8174,-8.809,-8.8123,-8.8228,-8.8503,-8.8519,-8.8534,-8.864,-8.8672,-8.8698,0,0,0,0,0,0,-8.7486,-8.7563,-8.7539,-8.7728,-8.7799,-8.7867,-8.7964,-8.7936,-8.8025,-8.8011,-8.8005,-8.8023,-8.8191,-8.8225,-8.8131,-8.8425,-8.8327,-8.835,-8.8397,-8.8427,-8.8451,-8.844,-8.8038,0,0,0,0,0,-8.7529,-8.7639,-8.77,-8.7861,-8.7898,-8.7926,-8.7987,-8.7981,-8.8053,-8.8082,-8.8124,-8.8193,-8.8296,-8.8363,-8.846,-8.8655,-8.867,-8.8743,-8.8767,-8.8787,-8.8807,-8.8913,-8.8946,-8.8592,-8.8592,-8.8591,0,0,-8.7617,-8.7673,-8.7743,-8.7881,-8.7935,-8.8048,-8.7951,-8.8074,-8.8158,-8.8099,-8.8256,-8.829,-8.8366,-8.8546,-8.8627,-8.858,-8.8908,-8.8806,-8.8822,-8.8831,-8.8932,-8.8966,-8.8996,-8.8602,-8.86,-8.8599,0,0,-8.7838,-8.7891,-8.8032,-8.8089,-8.8172,-8.819,-8.8224,-8.8298,-8.8319,-8.8476,-8.8435,-8.8533,-8.8709,-8.8766,-8.8818,-8.9061,-8.9024,-8.9092,-8.9219,-8.9323,-8.9351,-8.9375,-8.9463,-8.9494,-8.9112,-8.9112,-8.9112,0,-8.7937,-8.8109,-8.8107,-8.8236,-8.8298,-8.8252,-8.8394,-8.8448,-8.8558,-8.8601,-8.8547,-8.8769,-8.8817,-8.901,-8.9069,-8.9113,-8.915,-8.9084,-8.9347,-8.9372,-8.9395,-8.9478,-8.9511,-8.912,-8.9119,-8.9118,-8.9118,0,-8.8227,-8.8346,-8.845,-8.8561,-8.8634,-8.8768,-8.8786,-8.886,-8.8848,-8.887,-8.9031,-8.9088,-8.9196,-8.9241,-8.9229,-8.9433,-8.9401,-8.9347,-8.9249,-8.9437,-8.9515,-8.9547,-8.9131,-8.9128,-8.9126,-8.9124,0,0,-8.851,-8.862,-8.8658,-8.8709,-8.8798,-8.8889,-8.9021,-8.9129,-8.9193,-8.927,-8.938,-8.9531,-8.9482,-8.9541,-8.9535,-8.9626,-8.9816,-8.9561,-8.9563,-8.9608,-9.0045,-9.0086,-9.0123,-8.9792,-8.9798,-8.9803,-9.0039,0,-8.8738,-8.8972,-8.8976,-8.919,-8.93,-8.9259,-8.9373,-8.944,-8.9465,-8.956,-8.9585,-8.9694,-8.9621,-8.9656,-8.9744,-8.9775,-8.9904,-8.9757,-8.9893,-8.9898,-8.9877,-9.0164,-9.0207,-9.0427,-9.0069,-9.0074,-9.0078,0,-8.9035,-8.9126,-8.9352,-8.9427,-8.9473,-8.9577,-8.9677,-8.9769,-8.9843,-8.9854,-8.9921,-8.9902,-9.0034,-8.9932,-9.0114,-9.0014,-9.007,-9.0093,-9.0101,-9.0115,-9.0,-9.0186,-9.0497,-9.0531,-9.0126,-9.0122,-9.0119,0,-8.9221,-8.9399,-8.9558,-8.9601,-8.9692,-8.9766,-8.9807,-8.9875,-8.994,-9.0026,-9.0068,-9.0168,-9.0223,-9.0299,-9.0307,-9.0231,-9.0491,-9.0388,-9.0503,-9.0503,-9.056,-9.0557,-9.0886,-9.0594,-9.0594,-9.0593,-9.0592,0,-8.9476,-8.9616,-8.9643,-8.9741,-8.9896,-8.9897,-9.0051,-9.0085,-9.0146,-9.0248,-9.0217,-9.0313,-9.0316,-9.0414,-9.042,-9.0571,-9.0595,-9.0607,-9.0608,-9.0611,-9.061,-9.0648,-9.0633,-9.0602,-9.06,-9.0598,-9.0597,0,-8.971,-8.9734,-8.9904,-8.9977,-8.9998,-9.011,-9.0171,-9.0264,-9.0285,-9.0415,-9.0446,-9.0479,-9.0593,-9.0608,-9.074,-9.0744,-9.0925,-9.0908,-9.0902,-9.09,-9.1014,-9.1004,-9.138,-9.143,-9.1105,-9.1108,-9.111,0,-8.9872,-8.998,-9.0065,-9.0133,-9.0179,-9.0287,-9.0355,-9.036,-9.043,-9.0523,-9.0605,-9.0716,-9.0805,-9.0989,-9.1023,-9.1124,-9.111,-9.1235,-9.1125,-9.1126,-9.1114,-9.1108,-9.1119,-9.1257,-9.1261,-9.1263,-9.1266,0,-9.0158,-9.0164,-9.0264,-9.0369,-9.045,-9.0532,-9.0608,-9.0665,-9.0679,-9.076,-9.0878,-9.0948,-9.1084,-9.1195,-9.1294,-9.1333,-9.1303,-9.13,-9.1332,-9.1338,-9.133,-9.1337,-9.0961,-9.1292,-9.1289,-9.1287,-9.1286,-9.1285,-9.0362,-9.0456,-9.0531,-9.0643,-9.0702,-9.0775,-9.0866,-9.09,-9.0999,-9.1113,-9.1109,-9.1238,-9.1309,-9.144,-9.1487,-9.1587,-9.1545,-9.1591,-9.1603,-9.1615,-9.1627,-9.1314,-9.1604,-9.1604,-9.1603,-9.1602,-9.1602,0,-9.0647,-9.0693,-9.0797,-9.0907,-9.0995,-9.096,-9.1043,-9.1118,-9.1234,-9.1303,-9.1393,-9.1528,-9.1636,-9.1679,-9.1784,-9.1856,-9.1844,-9.1883,-9.1878,-9.1888,-9.1657,-9.162,-9.1891,-9.1891,-9.1891,-9.1891,-9.1891,-9.1891,-9.0805,-9.0964,-9.0979,-9.1166,-9.121,-9.134,-9.139,-9.1457,-9.1513,-9.1666,-9.1757,-9.1785,-9.1844,-9.1953,-9.205,-9.2059,-9.21,-9.2146,-9.2149,-9.1933,-9.1904,-9.1876,-9.1841,-9.2154,-9.2155,-9.2372,-9.2374,-9.2375]}]]